DB5ZQ Weather Reports


time (UTC)temp
C
wind
direction
speed
KPH
gust
KPH
rain 1hr
cm
rain 24hr
cm
rain mn
cm
humidity
%
barometer
mb
20260905062830 19 90 1.6 4.8 0.00 0.03 0.00 74 1016.6
20260905062329 18 25 0.0 4.8 0.00 0.03 0.00 75 1016.6
20260905061829 18 66 0.0 0.0 0.00 0.03 0.00 77 1016.5
20260905061329 18 66 0.0 0.0 0.00 0.03 0.00 77 1016.5
20260905060829 18 66 0.0 0.0 0.00 0.03 0.00 77 1016.6
20260905060328 18 66 0.0 0.0 0.00 0.03 0.00 77 1016.4
20260905055828 18 66 0.0 0.0 0.00 0.03 0.00 77 1016.4
20260905055328 18 66 0.0 0.0 0.00 0.03 0.00 77 1016.4
20260905054827 18 66 0.0 0.0 0.00 0.03 0.00 78 1016.3
20260905054327 18 66 0.0 0.0 0.00 0.03 0.00 78 1016.2
20260905053827 18 66 0.0 0.0 0.00 0.03 0.00 78 1016.2
20260905053327 18 66 0.0 0.0 0.00 0.03 0.00 78 1016.0
20260905052826 18 66 0.0 0.0 0.00 0.03 0.00 79 1015.9
20260905052326 18 66 0.0 0.0 0.00 0.03 0.00 79 1016.0
20260905051826 18 66 0.0 0.0 0.00 0.03 0.00 79 1015.9
20260905051325 18 66 0.0 1.6 0.00 0.03 0.00 78 1015.8
20260905050825 18 66 0.0 4.8 0.00 0.03 0.00 78 1015.7
20260905050325 18 22 0.0 0.0 0.00 0.03 0.00 78 1015.5
20260905045825 18 22 0.0 4.8 0.00 0.03 0.00 78 1015.4
20260905045324 18 5 0.0 3.2 0.00 0.03 0.00 78 1015.2
20260905044824 18 98 0.0 3.2 0.00 0.03 0.00 78 1015.2
20260905044324 18 40 0.0 1.6 0.00 0.03 0.00 78 1015.2
20260905043823 18 46 1.6 3.2 0.00 0.03 0.00 78 1015.1
20260905043323 18 50 0.0 0.0 0.00 0.03 0.00 78 1015.2
20260905042823 18 50 0.0 0.0 0.00 0.03 0.00 78 1015.1
20260905042323 18 50 0.0 0.0 0.00 0.03 0.00 79 1015.0
20260905041822 18 50 0.0 0.0 0.00 0.03 0.00 79 1015.1
20260905041322 18 50 0.0 0.0 0.00 0.03 0.00 79 1015.0
20260905040822 18 50 0.0 0.0 0.00 0.03 0.00 79 1015.1
20260905040321 18 50 0.0 0.0 0.00 0.03 0.00 79 1015.1
20260905035821 18 50 0.0 0.0 0.00 0.03 0.00 78 1015.0
20260905035321 18 50 0.0 0.0 0.00 0.03 0.00 78 1014.9
20260905034821 18 50 0.0 0.0 0.00 0.03 0.00 78 1014.9
20260905034320 18 50 0.0 0.0 0.00 0.03 0.00 78 1014.9
20260905033820 18 50 0.0 0.0 0.00 0.03 0.00 78 1014.8
20260905033320 19 50 0.0 0.0 0.00 0.03 0.00 77 1014.7
20260905032819 19 50 0.0 0.0 0.00 0.03 0.00 77 1014.7
20260905032319 19 50 0.0 0.0 0.00 0.03 0.00 77 1014.6
20260905031819 19 50 0.0 0.0 0.00 0.03 0.00 77 1014.6
20260905031319 19 50 0.0 0.0 0.00 0.03 0.00 77 1014.5
20260905030818 19 50 0.0 0.0 0.00 0.03 0.00 77 1014.6
20260905030318 19 50 0.0 0.0 0.00 0.03 0.00 77 1014.6
20260905025818 19 50 0.0 0.0 0.00 0.03 0.00 77 1014.5
20260905025317 19 50 0.0 0.0 0.00 0.03 0.00 77 1014.4
20260905024817 19 50 0.0 0.0 0.00 0.03 0.00 77 1014.5
20260905024317 19 50 0.0 0.0 0.00 0.03 0.00 76 1014.5
20260905023817 19 50 0.0 0.0 0.00 0.03 0.00 76 1014.4
20260905023316 19 1 0.0 0.0 0.00 0.03 0.00 76 1014.4
20260905022816 19 1 0.0 0.0 0.00 0.03 0.00 76 1014.3
20260905022316 19 1 0.0 0.0 0.00 0.03 0.00 76 1014.2
20260905021815 19 1 0.0 1.6 0.00 0.03 0.00 76 1014.3
20260905021315 19 319 0.0 0.0 0.00 0.03 0.00 76 1014.2
20260905020815 19 319 0.0 0.0 0.00 0.03 0.00 76 1014.3
20260905020315 19 319 0.0 1.6 0.00 0.03 0.00 76 1014.3
20260905015814 19 319 0.0 1.6 0.00 0.03 0.00 77 1014.3
20260905015314 19 312 0.0 3.2 0.00 0.03 0.00 77 1014.1
20260905014814 19 23 0.0 4.8 0.00 0.03 0.00 77 1014.1
20260905014313 19 46 0.0 3.2 0.00 0.03 0.00 77 1014.1
20260905013813 20 355 0.0 3.2 0.00 0.03 0.00 77 1014.0
20260905013313 20 309 0.0 3.2 0.00 0.03 0.00 77 1013.9
20260905012813 20 258 0.0 1.6 0.00 0.03 0.00 77 1013.8
20260905012312 19 348 0.0 0.0 0.00 0.03 0.00 77 1013.9
20260905011812 19 348 0.0 0.0 0.00 0.03 0.00 78 1014.1
20260905011312 19 348 0.0 0.0 0.00 0.03 0.00 78 1014.0
20260905010812 19 348 0.0 4.8 0.00 0.03 0.00 78 1014.1
20260905010311 19 341 3.2 4.8 0.00 0.03 0.00 77 1014.1
20260905005811 19 345 0.0 6.4 0.00 0.03 0.00 77 1014.0
20260905005311 19 284 0.0 3.2 0.00 0.03 0.00 77 1013.8
20260905004810 19 336 0.0 1.6 0.00 0.03 0.00 76 1013.9
20260905004310 20 12 0.0 4.8 0.00 0.03 0.00 76 1014.0
20260905003810 20 322 0.0 4.8 0.00 0.03 0.00 76 1013.9
20260905003310 20 28 0.0 0.0 0.00 0.03 0.00 75 1013.9
20260905002809 20 327 0.0 3.2 0.00 0.03 0.00 75 1013.9
20260905002309 20 56 0.0 0.0 0.00 0.03 0.00 74 1013.7
20260905001809 20 56 0.0 3.2 0.00 0.03 0.00 75 1013.8
20260905001308 20 331 0.0 3.2 0.00 0.03 0.00 74 1013.9
20260905000808 20 9 0.0 1.6 0.00 0.03 0.00 74 1013.9
20260905000310 20 309 0.0 0.0 0.00 0.03 0.00 74 1013.7
20260904235808 20 309 0.0 0.0 0.00 0.03 0.00 74 1013.7
20260904235307 20 309 0.0 1.6 0.00 0.03 0.00 74 1013.6
20260904234807 20 324 0.0 4.8 0.00 0.03 0.00 74 1013.6
20260904234307 20 326 4.8 6.4 0.00 0.03 0.00 73 1013.5
20260904233806 20 15 1.6 3.2 0.00 0.03 0.00 73 1013.8
20260904233306 20 312 1.6 1.6 0.00 0.03 0.00 72 1013.8
20260904232806 20 91 0.0 4.8 0.00 0.03 0.00 72 1013.9
20260904232307 20 165 0.0 0.0 0.00 0.03 0.00 72 1013.7
20260904231805 20 165 0.0 0.0 0.00 0.03 0.00 72 1013.4
20260904231305 20 305 0.0 6.4 0.00 0.03 0.00 72 1013.2
20260904230805 20 307 1.6 3.2 0.00 0.03 0.00 71 1013.1
20260904230304 20 330 0.0 0.0 0.00 0.03 0.00 71 1013.1
20260904225804 20 330 0.0 1.6 0.00 0.03 0.00 71 1013.0
20260904225306 20 351 0.0 1.6 0.00 0.03 0.00 71 1013.2
20260904224804 20 299 0.0 0.0 0.00 0.03 0.00 70 1013.4
20260904224303 20 347 0.0 1.6 0.00 0.03 0.00 70 1013.3
20260904223803 20 275 0.0 1.6 0.00 0.03 0.00 70 1013.3
20260904223303 20 168 0.0 0.0 0.00 0.03 0.00 70 1013.5
20260904222802 20 164 0.0 0.0 0.00 0.03 0.00 70 1013.5
20260904222305 20 233 0.0 0.0 0.00 0.03 0.00 69 1013.3
20260904221802 20 16 0.0 0.0 0.00 0.03 0.00 69 1013.2
20260904221302 21 16 0.0 1.6 0.00 0.03 0.00 69 1013.4
20260904220801 21 4 0.0 1.6 0.00 0.03 0.00 69 1013.2
20260904220301 21 286 0.0 0.0 0.03 0.03 0.00 69 1013.3
20260904215801 21 286 0.0 0.0 0.03 0.03 0.00 69 1013.0
20260904215300 21 286 0.0 0.0 0.03 0.03 0.00 69 1012.9
20260904214800 21 286 0.0 1.6 0.03 0.03 0.00 69 1012.8
20260904214300 21 257 1.6 1.6 0.03 0.03 0.00 68 1013.1
20260904213800 21 191 0.0 0.0 0.03 0.03 0.00 68 1012.9
20260904213259 21 191 0.0 3.2 0.03 0.03 0.00 69 1013.0
20260904212759 21 225 0.0 1.6 0.03 0.03 0.03 69 1013.0
20260904212259 20 338 0.0 0.0 0.03 0.03 0.03 70 1012.9
20260904211758 20 338 0.0 3.2 0.03 0.03 0.03 69 1013.1
20260904211258 20 127 0.0 6.4 0.03 0.03 0.03 69 1013.0
20260904210758 20 21 0.0 4.8 0.03 0.03 0.03 69 1012.8
20260904210258 20 70 1.6 8.0 0.00 0.00 0.00 69 1012.8
20260904205757 20 40 0.0 14.5 0.00 0.00 0.00 69 1012.9
20260904205257 20 22 4.8 22.5 0.00 0.00 0.00 70 1012.8
20260904204757 20 108 11.3 24.1 0.00 0.00 0.00 70 1012.5
20260904204256 21 54 4.8 22.5 0.00 0.00 0.00 69 1012.8
20260904203756 21 88 4.8 17.7 0.00 0.00 0.00 70 1012.6
20260904203256 21 102 8.0 29.0 0.00 0.00 0.00 71 1012.3
20260904202756 21 32 24.1 29.0 0.00 0.00 0.00 71 1012.1
20260904202255 21 358 3.2 24.1 0.00 0.00 0.00 70 1012.2
20260904201755 22 40 11.3 20.9 0.00 0.00 0.00 68 1012.1
20260904201255 22 85 20.9 38.6 0.00 0.00 0.00 65 1012.0
20260904200754 22 246 11.3 24.1 0.00 0.00 0.00 65 1011.7
20260904200254 22 112 3.2 17.7 0.00 0.00 0.00 64 1011.6
20260904195754 23 50 12.9 17.7 0.00 0.00 0.00 63 1011.6
20260904195254 23 70 11.3 40.2 0.00 0.00 0.00 62 1011.5
20260904194753 23 142 1.6 24.1 0.00 0.00 0.00 61 1011.4
20260904194253 24 70 8.0 14.5 0.00 0.00 0.00 61 1011.2
20260904193753 24 32 4.8 24.1 0.00 0.00 0.00 60 1011.0
20260904193253 24 43 3.2 33.8 0.00 0.00 0.00 60 1010.8
20260904192752 25 101 9.7 24.1 0.00 0.00 0.00 58 1010.8
20260904192252 25 137 12.9 17.7 0.00 0.00 0.00 56 1010.5
20260904191752 26 104 12.9 27.4 0.00 0.00 0.00 53 1010.3
20260904191251 26 122 17.7 25.7 0.00 0.00 0.00 51 1010.1
20260904190751 26 25 3.2 12.9 0.00 0.00 0.00 49 1009.5
20260904190251 26 16 3.2 16.1 0.00 0.00 0.00 49 1009.3
20260904185751 26 5 4.8 19.3 0.00 0.00 0.00 49 1009.3
20260904185250 27 67 12.9 19.3 0.00 0.00 0.00 49 1009.3
20260904184750 27 56 0.0 14.5 0.00 0.00 0.00 49 1009.2
20260904184250 27 98 3.2 9.7 0.00 0.00 0.00 49 1009.1
20260904183749 27 81 0.0 6.4 0.00 0.00 0.00 48 1009.0
20260904183249 27 88 1.6 11.3 0.00 0.00 0.00 48 1009.0
20260904182749 27 358 1.6 14.5 0.00 0.00 0.00 48 1008.9
20260904182249 27 61 4.8 11.3 0.00 0.00 0.00 48 1008.8
20260904181748 27 45 6.4 22.5 0.00 0.00 0.00 47 1008.6
20260904181248 27 56 3.2 25.7 0.00 0.00 0.00 47 1008.5
20260904180748 27 32 4.8 20.9 0.00 0.00 0.00 47 1008.4
20260904180247 27 98 6.4 12.9 0.00 0.00 0.00 47 1008.4
20260904175747 27 250 3.2 20.9 0.00 0.00 0.00 47 1008.4
20260904175247 27 137 3.2 19.3 0.00 0.00 0.00 46 1008.3
20260904174747 28 120 9.7 22.5 0.00 0.00 0.00 46 1008.3
20260904174246 28 47 3.2 9.7 0.00 0.00 0.00 46 1008.3
20260904173746 28 203 0.0 11.3 0.00 0.00 0.00 45 1008.3
20260904173246 28 8 0.0 9.7 0.00 0.00 0.00 45 1008.2
20260904172745 28 78 3.2 14.5 0.00 0.00 0.00 44 1008.2
20260904172245 28 136 4.8 14.5 0.00 0.00 0.00 44 1008.2
20260904171745 28 59 1.6 14.5 0.00 0.00 0.00 43 1008.1
20260904171245 29 67 6.4 14.5 0.00 0.00 0.00 43 1008.2
20260904170744 29 94 9.7 17.7 0.00 0.00 0.00 42 1008.2
20260904170244 29 90 4.8 20.9 0.00 0.00 0.00 41 1008.2
20260904165744 29 25 8.0 17.7 0.00 0.00 0.00 42 1008.2
20260904165243 29 52 16.1 19.3 0.00 0.00 0.00 41 1008.1
20260904164743 30 19 3.2 11.3 0.00 0.00 0.00 41 1008.1
20260904164243 30 71 4.8 17.7 0.00 0.00 0.00 41 1008.1
20260904163743 30 60 4.8 17.7 0.00 0.00 0.00 40 1008.2
20260904163242 30 289 1.6 24.1 0.00 0.00 0.00 39 1008.1
20260904162742 30 105 14.5 19.3 0.00 0.00 0.00 39 1008.0
20260904162242 31 70 11.3 20.9 0.00 0.00 0.00 38 1008.0
20260904161741 31 56 11.3 25.7 0.00 0.00 0.00 36 1008.1
20260904161241 32 70 6.4 14.5 0.00 0.00 0.00 35 1008.1
20260904160741 31 54 0.0 11.3 0.00 0.00 0.00 36 1008.1
20260904160241 31 104 4.8 19.3 0.00 0.00 0.00 35 1008.0
20260904155740 32 150 1.6 20.9 0.00 0.00 0.00 34 1008.0
20260904155240 32 36 3.2 17.7 0.00 0.00 0.00 34 1008.0
20260904154740 32 18 0.0 20.9 0.00 0.00 0.00 35 1008.1
20260904154239 32 60 3.2 19.3 0.00 0.00 0.00 34 1008.0
20260904153739 31 80 8.0 19.3 0.00 0.00 0.00 35 1008.1
20260904153239 31 50 14.5 17.7 0.00 0.00 0.00 36 1008.2
20260904152739 31 102 8.0 19.3 0.00 0.00 0.00 37 1008.1
20260904152238 30 46 1.6 17.7 0.00 0.00 0.00 38 1008.1
20260904151738 30 74 6.4 12.9 0.00 0.00 0.00 38 1008.1
20260904151238 30 23 6.4 19.3 0.00 0.00 0.00 38 1008.1
20260904150737 31 47 9.7 14.5 0.00 0.00 0.00 37 1008.1
20260904150237 31 302 3.2 17.7 0.00 0.00 0.00 36 1008.0
20260904145737 32 63 6.4 16.1 0.00 0.00 0.00 36 1008.0
20260904145237 32 129 9.7 12.9 0.00 0.00 0.00 35 1008.0
20260904144736 32 40 4.8 17.7 0.00 0.00 0.00 34 1007.9
20260904144236 33 135 6.4 14.5 0.00 0.00 0.00 32 1007.9
20260904143736 33 316 0.0 25.7 0.00 0.00 0.00 32 1007.9
20260904143235 33 90 11.3 11.3 0.00 0.00 0.00 32 1007.8
20260904142735 32 12 3.2 16.1 0.00 0.00 0.00 34 1007.8
20260904142235 32 4 14.5 17.7 0.00 0.00 0.00 34 1007.9
20260904141735 32 106 3.2 16.1 0.00 0.00 0.00 36 1007.8
20260904141234 31 232 1.6 20.9 0.00 0.00 0.00 36 1007.8
20260904140734 31 18 4.8 24.1 0.00 0.00 0.00 37 1007.9
20260904140234 31 334 12.9 20.9 0.00 0.00 0.00 36 1007.8
20260904135733 31 147 4.8 20.9 0.00 0.00 0.00 38 1007.9
20260904135233 31 43 6.4 19.3 0.00 0.00 0.00 38 1008.0
20260904134733 31 80 11.3 29.0 0.00 0.00 0.00 39 1008.1
20260904134233 31 50 9.7 20.9 0.00 0.00 0.00 38 1008.2
20260904133732 31 63 4.8 14.5 0.00 0.00 0.00 38 1008.1
20260904133232 31 139 1.6 22.5 0.00 0.00 0.00 39 1008.1
20260904132732 31 99 3.2 19.3 0.00 0.00 0.00 39 1008.2
20260904132232 31 319 3.2 24.1 0.00 0.00 0.00 39 1008.3
20260904131731 31 352 8.0 24.1 0.00 0.00 0.00 39 1008.3
20260904131231 31 305 8.0 17.7 0.00 0.00 0.00 40 1008.3
20260904130731 31 70 4.8 14.5 0.00 0.00 0.00 41 1008.4
20260904130230 30 106 11.3 17.7 0.00 0.00 0.00 42 1008.5
20260904125730 30 295 4.8 17.7 0.00 0.00 0.00 41 1008.8
20260904125230 30 47 4.8 19.3 0.00 0.00 0.00 43 1008.9
20260904124730 29 46 11.3 16.1 0.00 0.00 0.00 43 1008.9
20260904124229 29 104 6.4 16.1 0.00 0.00 0.00 45 1009.0
20260904123729 28 98 8.0 19.3 0.00 0.00 0.00 45 1009.1
20260904123229 29 351 9.7 24.1 0.00 0.00 0.00 44 1008.9
20260904122728 30 333 12.9 16.1 0.00 0.00 0.00 44 1009.1
20260904122228 28 16 0.0 11.3 0.00 0.00 0.00 46 1009.1
20260904121728 28 282 6.4 16.1 0.00 0.00 0.00 46 1009.2
20260904121228 28 306 3.2 14.5 0.00 0.00 0.00 48 1009.3
20260904120727 27 56 6.4 19.3 0.00 0.00 0.00 49 1009.4
20260904120227 27 49 4.8 9.7 0.00 0.00 0.00 50 1009.6
20260904115727 27 73 6.4 19.3 0.00 0.00 0.00 50 1009.6
20260904115226 27 298 14.5 17.7 0.00 0.00 0.00 50 1009.7
20260904114726 27 50 4.8 19.3 0.00 0.00 0.00 50 1009.8
20260904114226 27 112 8.0 22.5 0.00 0.00 0.00 49 1009.8
20260904113726 27 261 4.8 24.1 0.00 0.00 0.00 49 1009.8
20260904113225 27 50 6.4 27.4 0.00 0.00 0.00 48 1010.0
20260904112725 28 33 6.4 16.1 0.00 0.00 0.00 47 1009.9
20260904112225 28 326 1.6 22.5 0.00 0.00 0.00 46 1010.0
20260904111724 28 316 12.9 12.9 0.00 0.00 0.00 46 1010.0
20260904111224 28 118 3.2 19.3 0.00 0.00 0.00 47 1010.1
20260904110724 28 75 6.4 29.0 0.00 0.00 0.00 47 1010.1
20260904110224 27 329 6.4 25.7 0.00 0.00 0.00 50 1010.2
20260904105723 27 284 3.2 17.7 0.00 0.00 0.00 51 1010.1
20260904105223 27 323 1.6 17.7 0.00 0.00 0.00 51 1010.3
20260904104723 26 338 8.0 22.5 0.00 0.00 0.00 52 1010.4
20260904104222 27 14 3.2 17.7 0.00 0.00 0.00 53 1010.4
20260904103722 26 61 0.0 17.7 0.00 0.00 0.00 54 1010.5
20260904103222 27 326 1.6 14.5 0.00 0.00 0.00 53 1010.5
20260904102722 26 300 3.2 12.9 0.00 0.00 0.00 54 1010.6
20260904102221 26 36 3.2 24.1 0.00 0.00 0.00 55 1010.5
20260904101721 26 317 3.2 14.5 0.00 0.00 0.00 55 1010.7
20260904101221 26 341 4.8 17.7 0.00 0.00 0.00 55 1010.7
20260904100720 26 345 11.3 19.3 0.00 0.00 0.00 55 1010.8
20260904100220 26 348 11.3 19.3 0.00 0.00 0.00 55 1010.7
20260904095720 26 39 9.7 25.7 0.00 0.00 0.00 55 1010.6
20260904095220 26 8 1.6 22.5 0.00 0.00 0.00 55 1010.7
20260904094719 26 0 1.6 22.5 0.00 0.00 0.00 55 1010.7
20260904094219 26 343 3.2 22.5 0.00 0.00 0.00 56 1010.7
20260904093719 26 298 6.4 17.7 0.00 0.00 0.00 57 1010.6
20260904093218 26 80 3.2 19.3 0.00 0.00 0.00 57 1010.8
20260904092718 25 94 4.8 14.5 0.00 0.00 0.00 59 1010.8
20260904092218 25 16 4.8 17.7 0.00 0.00 0.00 59 1011.0
20260904091718 25 71 6.4 16.1 0.00 0.00 0.00 60 1011.1
20260904091217 25 341 14.5 17.7 0.00 0.00 0.00 60 1011.2
20260904090717 25 240 1.6 9.7 0.00 0.00 0.00 62 1011.4
20260904090217 24 12 0.0 14.5 0.00 0.00 0.00 63 1011.5
20260904085717 24 33 8.0 17.7 0.00 0.00 0.00 63 1011.6
20260904085216 23 5 4.8 14.5 0.00 0.00 0.00 64 1011.8
20260904084716 23 43 1.6 12.9 0.00 0.00 0.00 65 1011.8
20260904084216 23 336 4.8 14.5 0.00 0.00 0.00 65 1011.8
20260904083715 23 22 4.8 9.7 0.00 0.00 0.00 67 1012.0
20260904083215 23 315 3.2 12.9 0.00 0.00 0.00 67 1012.0
20260904082715 23 247 0.0 14.5 0.00 0.00 0.00 67 1012.0
20260904082214 22 340 8.0 16.1 0.00 0.00 0.00 67 1012.0
20260904081714 22 352 4.8 14.5 0.00 0.00 0.00 67 1012.0
20260904081214 22 307 6.4 14.5 0.00 0.00 0.00 68 1012.0
20260904080714 22 352 1.6 14.5 0.00 0.00 0.00 68 1012.0
20260904080213 22 286 6.4 16.1 0.00 0.00 0.00 69 1012.0
20260904075713 22 82 4.8 16.1 0.00 0.00 0.00 69 1012.0
20260904075213 22 288 3.2 16.1 0.00 0.00 0.00 70 1012.1
20260904074712 22 358 0.0 9.7 0.00 0.00 0.00 71 1012.2
20260904074212 22 85 6.4 11.3 0.00 0.00 0.00 72 1012.2
20260904073712 22 104 4.8 12.9 0.00 0.00 0.00 72 1012.4
20260904073212 22 118 8.0 14.5 0.00 0.00 0.00 73 1012.4
20260904072711 21 77 1.6 8.0 0.00 0.00 0.00 74 1012.4
20260904072211 21 337 1.6 8.0 0.00 0.00 0.00 75 1012.4
20260904071711 21 341 8.0 9.7 0.00 0.00 0.00 75 1012.5
20260904071211 21 307 8.0 8.0 0.00 0.00 0.00 75 1012.6
20260904070710 21 19 0.0 12.9 0.00 0.00 0.00 75 1012.7
20260904070210 21 29 0.0 6.4 0.00 0.00 0.00 76 1012.7
20260904065710 21 111 0.0 11.3 0.00 0.00 0.00 77 1012.8
20260904065209 21 132 3.2 11.3 0.00 0.00 0.00 78 1012.9
20260904064709 20 45 0.0 6.4 0.00 0.00 0.00 78 1013.0
20260904064209 20 94 0.0 6.4 0.00 0.00 0.00 79 1013.1
20260904063709 20 63 0.0 8.0 0.00 0.00 0.00 79 1013.0
20260904063208 20 68 0.0 11.3 0.00 0.00 0.00 79 1013.0